Regional Weather Roundup
Issued by NWS Sioux Falls, SD

Home | Current Version | Previous Version | Graphics & Text | Print | Product List | Glossary On
Versions: 1 2 3 4 5 6 7 8 9 10 11 12 13 14 15 16 17 18 19 20 21 22 23 24 25 26 27 28 29 30 31 32 33 34 35 36 37 38 39 40 41 42 43 44 45 46 47 48 49 50
000
ASUS43 KFSD 061502
RWRFSD

WEATHER ROUNDUP FOR SE SOUTH DAKOTA/SW MINNESOTA/NW IOWA
NATIONAL WEATHER SERVICE SIOUX FALLS SD
1000 AM CDT FRI MAY 06 2016

NOTE: "FAIR" INDICATES FEW OR NO CLOUDS BELOW 12,000 FEET WITH NO
SIGNIFICANT WEATHER AND OR OBSTRUCTIONS TO VISIBILITY.


SDZ038>040-050-052>070-061600-
SOUTHEAST SOUTH DAKOTA

CITY           SKY/WX    TMP DP  RH WIND       PRES   REMARKS
BROOKINGS      SUNNY     73  50  44 SW22G30   29.84F
CHAMBERLAIN    NOT AVBL
HURON          SUNNY     75  53  46 W13       29.83S
MADISON        FAIR      72  48  43 SW20G33   29.87F
MITCHELL       MOSUNNY   75  52  44 SW13      29.87F
SIOUX FALLS    MOSUNNY   70  51  51 S9        29.90S
WINNER         FAIR      74  52  46 SW16G26   29.88R
YANKTON        SUNNY     72  48  43 SW16      29.90S
$$

MNZ071-072-080-081-089-090-097-098-061600-
SOUTHWEST MINNESOTA

CITY           SKY/WX    TMP DP  RH WIND       PRES   REMARKS
FAIRMONT       SUNNY     73  45  35 SW17G23   29.91S
JACKSON        SUNNY     73  37  27 SW22      29.92S
LUVERNE        SUNNY     72  45  37 SW20      29.91F
MARSHALL       SUNNY     76  49  38 SW28G35   29.82F
MONTEVIDEO     SUNNY     79  48  34 W12G21    29.81F
PIPESTONE      SUNNY     72  48  43 SW16G23   29.89F
REDWOOD FALLS  SUNNY     78  47  33 SW20G30   29.83F
TRACY          SUNNY     73  49  41 SW23G29   29.86F
WINDOM         SUNNY     75  43  31 SW22      29.89F
WORTHINGTON    SUNNY     72  48  42 SW21G31   29.91F
$$

IAZ001>003-012>014-020>022-031-032-NEZ013-014-SDZ071-061600-
NORTHWEST IOWA

CITY           SKY/WX    TMP DP  RH WIND       PRES   REMARKS
DENISON        SUNNY     70  46  43 W12G20    29.99S
ESTHERVILLE    SUNNY     73  46  38 SW20G28   29.92
SIOUX CITY     SUNNY     74  51  44 SW16      29.96
SPENCER        SUNNY     73  45  36 SW21G26   29.94F
STORM LAKE     SUNNY     72  45  37 SW22      29.97F
$$

ABBREVIATIONS USED IN REMARKS
   TC - TEMPERATURE IN CELSIUS
  WCI - WIND CHILL INDEX
   HX - HEAT INDEX
  VSB - VISIBILITY




USA.gov is the U.S. government's official web portal to all federal, state and local government web resources and services.